[ hide orbit diagram ]
For accurate long-term ephemerides, please instead use our Horizons system.This orbit viewer was implemented using two-body methods, and hence should not be used for determining accurate long-term trajectories (over several years or decades) or planetary encounter circumstances.
Orbital Elements at Epoch 2459000.5 (2020-May-31.0) TDB
Reference: JPL 32 (heliocentric ecliptic J2000)
Element | Value | Uncertainty (1-sigma) | Units |
e | .1360816085594637 | 3.5294e-08 | |
a | 3.21639348254334 | 1.7004e-08 | au |
q | 2.778701483678667 | 1.1527e-07 | au |
i | 5.277623008659001 | 4.9192e-06 | deg |
node | 22.74628249322925 | 4.6468e-05 | deg |
peri | 78.06496707848333 | 5.0795e-05 | deg |
M | 28.91004564611853 | 1.8839e-05 | deg |
tp | 2458831.300738318879 (2019-Dec-13.80073832) | 0.00011025 | TDB |
period | 2106.940091026167 5.77 | 1.6708e-05 4.574e-08 | d yr |
n | .1708638995163195 | 1.355e-09 | deg/d |
Q | 3.654085481408013 | 1.9318e-08 | au |
|
| | Orbit Determination Parameters
Additional Information
|
[ show covariance matrix ]
Physical Parameter Table
Parameter |
Symbol |
Value |
Units |
Sigma |
Reference |
Notes |
absolute magnitude |
H |
12.9 |
|
n/a |
MPO502199 |
|
diameter |
diameter |
11.600 |
km |
0.171 |
urn:nasa:pds:neowise_diameters_albedos::2.0[mainbelt] (http://adsabs.harvard.edu/abs/2011ApJ...741...68M) |
|
geometric albedo |
albedo |
0.109 |
|
0.012 |
urn:nasa:pds:neowise_diameters_albedos::2.0[mainbelt] (http://adsabs.harvard.edu/abs/2011ApJ...741...68M) |
|
|
4846 Tuthmosis (6575 P-L) Discovered 1960-Sep-24 by van Houten and Gehrels at Palomar |
Reference: DISCOVERY.DB | Last Updated: 2003-08-29 |
|
[ hide close-approach data ]
Close-Approach Data ...sorted by Date/Time (TDB)
|
Date/Time (TDB) |
Time Uncertainty (days_HH:MM) |
Body |
Nominal Distance (au) |
Minimum Distance (au) |
Maximum Distance (au) |
V-relative (km/s) |
V-infinity (km/s) |
JD (TDB) |
Time Uncertainty (minutes) |
Semi-major axis (km) |
Semi-minor axis (km) |
range-LOV angle (deg) |
N-sigma |
BP |
Orbit Ref. |
Reference |
Modified |
1900-Mar-14 13:21 |
00:03 |
Jupiter |
1.9528259044206 |
1.95282486000697 |
1.95282694883412 |
3.02019881519522 |
2.87299790868198 |
2415093.056516727 |
2.82341108217384 |
58.7008907791147 |
26.4448634234806 |
63.413645042501 |
1525257.8840275 |
T |
32 |
CATAB v2.0f-lin.ifort 2020-Dec-17 19:54:31 |
2020-Dec-17 19:54 |
2070-Nov-08 15:41 |
00:01 |
Jupiter |
1.92746725537326 |
1.92746656312812 |
1.92746794761829 |
4.03352251190728 |
3.92306091405366 |
2477424.153138710 |
1.19995518825655 |
50.0295879763513 |
29.6277981797069 |
84.6376728979167 |
2521647.62170557 |
T |
32 |
CATAB v2.0f-lin.ifort 2020-Dec-17 19:54:31 |
2020-Dec-17 19:54 |
2082-Mar-29 18:44 |
00:01 |
Jupiter |
1.81727490334421 |
1.81727418558704 |
1.81727562110137 |
3.55075925430454 |
3.41697256872913 |
2481583.280902209 |
1.41952985220363 |
64.581339625856 |
27.5819741336237 |
82.7343119446349 |
2260070.09445374 |
T |
32 |
CATAB v2.0f-lin.ifort 2020-Dec-17 19:54:31 |
2020-Dec-17 19:54 |
2093-Sep-11 20:34 |
00:02 |
Jupiter |
1.73675076359979 |
1.73675009153119 |
1.73675143566848 |
3.1711245151852 |
3.01340673203935 |
2485767.356681787 |
1.64461737096333 |
79.7042572873932 |
22.5780240494204 |
84.9419824301097 |
2180582.33345309 |
T |
32 |
CATAB v2.0f-lin.ifort 2020-Dec-17 19:54:31 |
2020-Dec-17 19:54 |
2105-Mar-23 06:40 |
00:02 |
Jupiter |
1.68768584650511 |
1.68768526449263 |
1.68768642851769 |
2.89795737894128 |
2.71926258002806 |
2489976.777924822 |
1.9114327410082 |
89.7921231395308 |
17.5987157464449 |
88.5247382097424 |
2166223.88111132 |
T |
32 |
CATAB v2.0f-lin.ifort 2020-Dec-17 19:54:31 |
2020-Dec-17 19:54 |
2116-Oct-25 04:25 |
00:02 |
Jupiter |
1.65929693269898 |
1.65929643979872 |
1.65929742559923 |
2.7084724294036 |
2.51294278520189 |
2494210.683894160 |
2.26578958596793 |
94.2866931466181 |
15.6601602141388 |
-87.3081975291257 |
2178493.63700041 |
T |
32 |
CATAB v2.0f-lin.ifort 2020-Dec-17 19:54:31 |
2020-Dec-17 19:54 |
2128-Jun-16 05:00 |
00:03 |
Jupiter |
1.64317067580904 |
1.64317023773154 |
1.64317111388634 |
2.57393054036642 |
2.36519710304395 |
2498462.708056721 |
2.74953492776972 |
96.749585509316 |
17.997359800134 |
-82.1415006801153 |
2228411.65513071 |
T |
32 |
CATAB v2.0f-lin.ifort 2020-Dec-17 19:54:31 |
2020-Dec-17 19:54 |
2140-Feb-18 07:38 |
00:03 |
Jupiter |
1.64396167600197 |
1.64396120023125 |
1.64396215177297 |
2.49664234505262 |
2.28095549292229 |
2502726.817820755 |
3.39196015727593 |
99.5279639918788 |
22.9356221325193 |
-75.874115934904 |
2363987.6784351 |
T |
32 |
CATAB v2.0f-lin.ifort 2020-Dec-17 19:54:31 |
2020-Dec-17 19:54 |
2151-Oct-26 04:49 |
00:04 |
Jupiter |
1.65730218508451 |
1.65730150824882 |
1.65730286192113 |
2.45954544597734 |
2.24214038923167 |
2506994.700366558 |
4.22556629220566 |
103.550055947795 |
28.6914657237821 |
-68.0652193051325 |
2644027.81606866 |
T |
32 |
CATAB v2.0f-lin.ifort 2020-Dec-17 19:54:31 |
2020-Dec-17 19:54 |
2163-Jun-29 06:21 |
00:05 |
Jupiter |
1.68457201312116 |
1.6845709362346 |
1.68457309000896 |
2.4577850652293 |
2.24389929121098 |
2511258.764652792 |
5.26428080319738 |
108.896941315881 |
34.3955506986645 |
-58.6706591378833 |
3100323.62757438 |
T |
32 |
CATAB v2.0f-lin.ifort 2020-Dec-17 19:54:31 |
2020-Dec-17 19:54 |
2175-Feb-21 12:12 |
00:07 |
Jupiter |
1.72022339862702 |
1.72022171722084 |
1.72022508003428 |
2.48346892279249 |
2.27658426040774 |
2515514.008572104 |
6.50955593026079 |
116.85222714516 |
39.639183517558 |
-48.2048010556399 |
3066912.01939913 |
T |
32 |
CATAB v2.0f-lin.ifort 2020-Dec-17 19:54:31 |
2020-Dec-17 19:54 |
2186-Oct-01 17:46 |
00:08 |
Jupiter |
1.76885545346773 |
1.76885297657399 |
1.76885793036147 |
2.55653171961997 |
2.3618102287768 |
2519754.240327524 |
7.9161257863042 |
126.900399644852 |
44.287050244064 |
-36.7747964400391 |
1879427.41630055 |
T |
32 |
CATAB v2.0f-lin.ifort 2020-Dec-17 19:54:31 |
2020-Dec-17 19:54 |
2198-Apr-25 07:55 |
00:09 |
Jupiter |
1.83846796357476 |
1.83846467119003 |
1.83847125595771 |
2.71729789275056 |
2.54209833993686 |
2523977.830041169 |
9.3588320503918 |
138.7009968426 |
47.6738959430538 |
-23.6214165829954 |
998432.934791161 |
T |
32 |
CATAB v2.0f-lin.ifort 2020-Dec-17 19:54:31 |
2020-Dec-17 19:54 |
|
Alternate Designations
6575 P-L = 1972 TD7 = 1986 EX |
|
|